Location: Arroyo Retuerta
(40.5469°N, 4.3534°W)
Time: 11:34:30
(UTC+00:00)

ISS - Pass Details

Date: 01 June 2020
Orbit: 417 x 421 km, 51.6° (Epoch: 06 July)

Event Time Altitude Azimuth Distance (km) Brightness Sun altitude
Rises 20:55:35 0° 306° (NW) 2,378 2.1 -11.9°
Reaches altitude 10° 20:57:41 10° 307° (NW) 1,510 0.6 -12.2°
Maximum altitude 21:01:05 89° 36° (NE) 427 -3.8 -12.7°
Enters shadow 21:03:02 24° 127° (SE) 931 -2.6 -13.0°
